This is the latest recevied weather packets stored in our database for station/object KB1JLI. If no packets are shown the sender has not sent any weather packets the latest 10 day(s).
| Time | Temp. | Humidity | Pressure | Rain* | Wind** | Luminosity | Snow |
|---|---|---|---|---|---|---|---|
| 1777940462 | 18.33° C | 44% | 1008.3 hPa | 0 mm | - | 0 W/m² | - |
| 1777940158 | 18.33° C | 44% | 1007.9 hPa | 0 mm | - | 0 W/m² | - |
| 1777939856 | 18.33° C | 43% | 1007.9 hPa | 0 mm | - | 0 W/m² | - |
| 1777939552 | 18.89° C | 43% | 1007.8 hPa | 0 mm | - | 0 W/m² | - |
| 1777939250 | 18.89° C | 42% | 1007.6 hPa | 0 mm | - | 0 W/m² | - |
| 1777938947 | 18.89° C | 42% | 1007.5 hPa | 0 mm | - | 1 W/m² | - |
| 1777938644 | 19.44° C | 41% | 1007.5 hPa | 0 mm | - | 1 W/m² | - |
| 1777938340 | 19.44° C | 40% | 1007.5 hPa | 0 mm | - | 2 W/m² | - |
| 1777938038 | 20° C | 38% | 1007.2 hPa | 0 mm | - | 3 W/m² | - |
| 1777937733 | 20° C | 37% | 1007 hPa | 0 mm | - | 5 W/m² | - |
| 1777937430 | 20.56° C | 36% | 1006.9 hPa | 0 mm | - | 7 W/m² | - |
| 1777937127 | 20.56° C | 35% | 1006.7 hPa | 0 mm | - | 9 W/m² | - |
| 1777936825 | 20.56° C | 34% | 1006.7 hPa | 0 mm | - | 11 W/m² | - |
| 1777936521 | 21.11° C | 34% | 1006.7 hPa | 0 mm | - | 14 W/m² | - |
| 1777936217 | 21.11° C | 33% | 1006.7 hPa | 0 mm | - | 15 W/m² | - |
| 1777935913 | 21.11° C | 34% | 1006.6 hPa | 0 mm | - | 18 W/m² | - |
| 1777935613 | 21.11° C | 33% | 1006.3 hPa | 0 mm | - | 19 W/m² | - |
| 1777935309 | 21.11° C | 33% | 1006.4 hPa | 0 mm | - | 22 W/m² | - |
| 1777935006 | 21.67° C | 33% | 1006.5 hPa | 0 mm | - | 27 W/m² | - |
| 1777934703 | 21.67° C | 32% | 1006.6 hPa | 0 mm | - | 32 W/m² | - |
| 1777934400 | 21.67° C | 32% | 1006.3 hPa | 0 mm | - | 29 W/m² | - |
| 1777934096 | 21.67° C | 32% | 1006.2 hPa | 0 mm | - | 36 W/m² | - |
| 1777933791 | 21.67° C | 31% | 1006.4 hPa | 0 mm | - | 47 W/m² | - |
| 1777933489 | 21.67° C | 32% | 1006.2 hPa | 0 mm | - | 48 W/m² | - |
| 1777933187 | 21.67° C | 32% | 1006.2 hPa | 0 mm | - | 66 W/m² | - |
* Rain latest hour (hover to see other rain measurements)
** Current wind speed in m/s (hover to see current wind gust speed)